Temp
-14 -14 -13 -13 -13 -13 -14 -14 -14 -14 -15 -14 -14 -14 -14 -14 -14 -14 -14 -14 -14 -14 -14 -15 -15 -15 -16 -17 -18 -18 -18 -19 -18 -18 -18 -18 -18 -18 -18 -18 -18 -18 -18
-15 -15 -15 -14 -14 -14 -14 -14 -15 -15 -15 -15 -15 -15 -15 -15 -15 -15 -15 -15 -15 -15 -15 -16 -16 -17 -18 -19 -19 -20 -19 -19 -19 -19 -19 -19 -19 -19 -19 -19 -19 -19 -19
-15 -15 -15 -15 -15 -15 -15 -15 -15 -15 -16 -16 -15 -15 -15 -16 -16 -16 -16 -16 -16 -17 -17 -18 -18 -18 -19 -19 -20 -20 -20 -20 -20 -20 -20 -20 -20 -20 -20 -20 -20 -20 -20
-15 -15 -15 -16 -16 -16 -16 -16 -17 -17 -16 -16 -16 -16 -16 -16 -17 -17 -18 -18 -18 -18 -19 -19 -19 -19 -19 -19 -20 -20 -20 -20 -21 -20 -21 -20 -20 -21 -21 -21 -21 -21 -21
-15 -15 -15 -17 -17 -17 -17 -18 -17 -17 -17 -17 -17 -17 -18 -18 -19 -19 -19 -19 -19 -19 -19 -20 -20 -20 -20 -20 -20 -20 -20 -21 -21 -21 -21 -21 -22 -22 -22 -21 -21 -21 -21
-15 -15 -16 -17 -17 -17 -17 -17 -18 -18 -18 -18 -19 -19 -19 -20 -19 -20 -20 -20 -20 -20 -21 -21 -21 -21 -21 -21 -21 -21 -21 -21 -22 -22 -22 -21 -22 -22 -22 -22 -22 -22 -21
-16 -16 -17 -18 -17 -17 -17 -18 -18 -19 -19 -19 -19 -20 -20 -20 -20 -21 -21 -21 -21 -21 -22 -22 -22 -23 -22 -22 -22 -22 -22 -22 -22 -22 -22 -23 -22 -23 -23 -23 -23 -23 -23
-16 -16 -17 -17 -18 -18 -19 -19 -20 -20 -19 -19 -20 -21 -21 -21 -21 -21 -22 -22 -22 -21 -22 -22 -22 -22 -23 -23 -23 -23 -23 -23 -23 -23 -23 -23 -23 -23 -24 -23 -23 -23 -23
-17 -17 -17 -18 -19 -19 -19 -20 -20 -20 -19 -19 -21 -21 -21 -21 -22 -21 -22 -22 -22 -22 -22 -22 -22 -23 -23 -23 -23 -23 -23 -24 -23 -23 -23 -24 -24 -24 -24 -24 -24 -24 -23
-19 -19 -19 -19 -19 -20 -20 -20 -20 -21 -21 -20 -21 -21 -21 -21 -22 -22 -22 -22 -22 -22 -22 -22 -22 -23 -23 -23 -23 -24 -24 -24 -24 -24 -24 -25 -25 -25 -25 -25 -25 -24 -24
-20 -20 -20 -20 -21 -21 -21 -21 -21 -22 -22 -21 -21 -21 -21 -21 -21 -22 -22 -21 -22 -22 -23 -23 -23 -23 -23 -23 -24 -25 -24 -24 -25 -25 -25 -25 -25 -25 -25 -25 -25 -25 -25
-21 -20 -20 -21 -21 -21 -21 -21 -21 -22 -22 -22 -22 -21 -22 -22 -22 -22 -21 -21 -22 -22 -23 -23 -23 -24 -24 -24 -24 -25 -25 -26 -26 -26 -26 -26 -25 -25 -25 -26 -25 -25 -27
-21 -21 -21 -21 -22 -22 -22 -22 -21 -22 -22 -22 -22 -23 -22 -22 -22 -22 -22 -22 -22 -22 -23 -24 -24 -25 -25 -24 -25 -26 -26 -26 -26 -26 -26 -26 -26 -25 -26 -26 -25 -28 -30
-22 -22 -22 -22 -22 -22 -22 -21 -22 -22 -22 -22 -23 -23 -23 -23 -22 -22 -23 -23 -23 -24 -25 -25 -25 -25 -26 -25 -25 -27 -28 -27 -27 -27 -27 -27 -27 -26 -26 -26 -27 -30 -30
-22 -22 -22 -22 -23 -23 -23 -23 -23 -22 -22 -22 -23 -24 -23 -23 -23 -24 -24 -25 -24 -25 -25 -26 -26 -26 -26 -27 -27 -28 -29 -29 -29 -29 -29 -28 -28 -27 -27 -28 -30 -31 -30
-22 -22 -22 -22 -23 -23 -23 -23 -23 -23 -23 -23 -24 -24 -24 -24 -24 -24 -25 -25 -26 -26 -26 -27 -27 -27 -28 -28 -29 -30 -31 -31 -30 -30 -29 -28 -27 -27 -28 -31 -31 -31 -30
-23 -23 -23 -22 -23 -23 -23 -23 -23 -23 -23 -23 -23 -23 -24 -25 -25 -25 -25 -25 -27 -27 -28 -28 -28 -28 -29 -30 -31 -31 -31 -31 -30 -30 -29 -28 -28 -30 -32 -32 -31 -30 -30
-23 -24 -24 -25 -24 -24 -23 -23 -22 -23 -24 -23 -24 -24 -24 -24 -25 -25 -26 -27 -28 -28 -28 -29 -29 -30 -31 -32 -32 -31 -31 -30 -30 -29 -29 -28 -29 -32 -33 -32 -32 -31 -30
-24 -23 -23 -23 -23 -24 -24 -23 -24 -23 -23 -24 -23 -24 -24 -24 -25 -26 -28 -28 -28 -28 -30 -30 -30 -31 -32 -32 -32 -31 -31 -30 -30 -29 -30 -30 -31 -33 -33 -32 -32 -31 -31
-25 -25 -24 -24 -24 -24 -25 -25 -24 -24 -24 -24 -25 -25 -25 -24 -26 -28 -29 -28 -29 -30 -31 -31 -32 -32 -32 -32 -32 -31 -31 -31 -30 -31 -31 -32 -33 -34 -33 -32 -32 -31 -30
-27 -27 -28 -28 -27 -27 -27 -27 -26 -26 -26 -26 -26 -27 -28 -28 -29 -29 -30 -31 -31 -31 -31 -32 -32 -32 -32 -32 -32 -32 -32 -31 -31 -31 -32 -32 -33 -34 -34 -32 -32 -31 -30
-31 -31 -31 -31 -30 -30 -30 -30 -30 -30 -30 -30 -30 -31 -30 -31 -30 -30 -30 -31 -31 -31 -32 -33 -32 -32 -33 -32 -32 -33 -32 -32 -32 -32 -32 -33 -34 -34 -33 -32 -32 -31 -30
-31 -31 -31 -31 -31 -31 -30 -30 -30 -30 -29 -30 -30 -30 -31 -30 -30 -31 -31 -32 -32 -33 -33 -33 -33 -33 -33 -33 -33 -33 -33 -32 -32 -33 -33 -33 -34 -34 -33 -32 -31 -31 -30
-31 -31 -31 -31 -31 -31 -30 -30 -30 -29 -29 -30 -30 -31 -31 -31 -31 -32 -32 -33 -33 -33 -33 -33 -33 -33 -33 -33 -33 -33 -33 -33 -33 -33 -33 -33 -34 -34 -33 -33 -32 -31 -30
-31 -31 -31 -31 -31 -31 -30 -30 -29 -29 -29 -30 -30 -30 -31 -32 -33 -33 -33 -34 -34 -33 -33 -33 -33 -34 -34 -33 -33 -33 -34 -33 -33 -34 -34 -34 -34 -34 -33 -33 -32 -31 -30
-30 -30 -29 -29 -29 -29 -29 -29 -29 -29 -30 -30 -31 -32 -33 -34 -34 -34 -34 -34 -33 -33 -33 -33 -34 -34 -34 -34 -34 -34 -34 -34 -34 -34 -35 -35 -34 -34 -34 -33 -32 -31 -30
Height
5656 5655 5652 5650 5651 5649 5647 5646 5644 5640 5638 5636 5636 5634 5632 5629 5628 5627 5624 5620 5618 5616 5609 5605 5603 5601 5596 5593 5588 5586 5582 5579 5583 5593 5579 5575 5570 5566 5563 5557 5553 5550 5546
5638 5638 5637 5635 5633 5633 5632 5630 5626 5625 5623 5622 5620 5619 5616 5615 5614 5609 5606 5602 5598 5595 5591 5585 5581 5577 5574 5571 5570 5566 5561 5557 5556 5565 5561 5551 5547 5543 5538 5533 5527 5523 5519
5619 5619 5619 5617 5613 5613 5614 5612 5609 5609 5608 5607 5604 5603 5601 5599 5595 5590 5587 5582 5579 5575 5572 5568 5564 5560 5555 5551 5548 5544 5541 5534 5531 5534 5543 5529 5524 5517 5512 5509 5503 5499 5491
5598 5598 5598 5598 5596 5594 5594 5594 5593 5592 5591 5589 5587 5585 5581 5579 5576 5573 5569 5564 5561 5557 5555 5552 5548 5543 5538 5532 5529 5523 5518 5514 5509 5507 5509 5510 5499 5488 5484 5480 5479 5473 5467
5580 5580 5582 5581 5580 5576 5576 5577 5575 5574 5573 5570 5567 5564 5562 5559 5556 5554 5549 5546 5543 5538 5535 5531 5528 5523 5518 5514 5508 5502 5496 5491 5487 5482 5482 5482 5478 5466 5454 5454 5448 5445 5440
5560 5562 5563 5564 5564 5560 5559 5558 5556 5555 5554 5551 5549 5546 5543 5541 5539 5536 5533 5530 5526 5522 5517 5513 5508 5504 5498 5493 5488 5484 5476 5469 5463 5459 5458 5454 5452 5441 5431 5422 5417 5413 5416
5544 5545 5544 5544 5542 5542 5541 5539 5538 5537 5534 5532 5530 5529 5527 5525 5522 5518 5516 5513 5510 5506 5500 5494 5492 5486 5480 5475 5468 5464 5457 5448 5440 5437 5436 5429 5428 5411 5407 5398 5386 5382 5377
5523 5521 5521 5520 5521 5521 5521 5520 5518 5518 5516 5514 5509 5509 5509 5508 5506 5503 5499 5495 5492 5488 5483 5478 5475 5469 5462 5457 5453 5447 5439 5430 5423 5418 5412 5405 5399 5390 5376 5369 5363 5350 5352
5503 5501 5498 5498 5498 5499 5498 5499 5500 5500 5497 5496 5491 5491 5491 5488 5486 5485 5482 5478 5474 5469 5463 5461 5457 5451 5444 5438 5434 5429 5423 5413 5406 5399 5391 5383 5375 5367 5350 5339 5333 5320 5319
5477 5476 5475 5475 5478 5477 5476 5480 5482 5482 5480 5477 5474 5475 5474 5470 5469 5466 5464 5461 5458 5451 5448 5444 5438 5432 5426 5420 5414 5408 5403 5394 5388 5382 5374 5365 5355 5345 5333 5314 5302 5291 5280
5454 5454 5454 5453 5455 5456 5457 5459 5460 5461 5461 5459 5458 5458 5456 5454 5451 5448 5446 5442 5439 5434 5431 5425 5421 5415 5408 5401 5395 5389 5382 5375 5368 5362 5354 5345 5334 5323 5313 5300 5281 5260 5250
5432 5433 5432 5432 5434 5435 5437 5440 5441 5441 5442 5442 5440 5437 5437 5435 5433 5430 5427 5424 5420 5416 5410 5406 5401 5396 5390 5381 5375 5370 5364 5356 5348 5342 5333 5324 5315 5305 5291 5276 5261 5241 5223
5411 5410 5411 5412 5414 5416 5418 5420 5420 5421 5422 5422 5420 5418 5417 5415 5412 5409 5407 5406 5404 5398 5392 5388 5383 5378 5372 5364 5355 5349 5345 5338 5330 5323 5315 5305 5294 5283 5270 5256 5239 5218 5209
5388 5390 5391 5392 5394 5395 5396 5398 5399 5401 5402 5402 5402 5400 5397 5395 5394 5392 5387 5385 5382 5379 5373 5367 5364 5359 5353 5347 5338 5330 5324 5319 5312 5304 5295 5286 5275 5263 5250 5232 5216 5201 5192
5362 5366 5368 5370 5372 5372 5374 5376 5378 5379 5379 5381 5380 5377 5376 5374 5377 5371 5368 5366 5364 5360 5354 5348 5342 5337 5332 5326 5318 5312 5307 5302 5294 5285 5276 5265 5254 5241 5227 5206 5191 5183 5176
5334 5339 5341 5342 5346 5348 5351 5354 5356 5356 5355 5354 5356 5356 5355 5354 5350 5352 5347 5346 5343 5338 5333 5330 5326 5320 5314 5309 5302 5297 5291 5286 5278 5269 5257 5244 5231 5216 5199 5186 5173 5165 5159
5303 5306 5310 5315 5319 5321 5325 5329 5331 5332 5334 5335 5335 5334 5331 5329 5328 5328 5325 5324 5323 5317 5315 5310 5306 5302 5298 5293 5288 5284 5279 5270 5261 5251 5237 5222 5207 5192 5178 5169 5160 5151 5145
5273 5279 5285 5290 5294 5297 5297 5301 5304 5305 5307 5309 5312 5313 5309 5308 5305 5304 5304 5302 5300 5296 5296 5293 5289 5286 5283 5278 5275 5272 5264 5256 5247 5235 5219 5205 5189 5175 5166 5157 5147 5138 5131
5245 5251 5255 5258 5263 5266 5274 5276 5277 5277 5280 5282 5287 5288 5285 5284 5281 5283 5282 5282 5281 5278 5277 5276 5275 5273 5269 5266 5263 5258 5251 5243 5232 5219 5204 5190 5177 5164 5157 5146 5136 5127 5118
5213 5217 5223 5226 5229 5235 5241 5244 5246 5250 5254 5255 5256 5257 5259 5258 5258 5259 5260 5261 5264 5261 5259 5260 5260 5259 5256 5253 5250 5245 5237 5228 5217 5204 5191 5178 5166 5155 5146 5137 5127 5117 5109
5190 5194 5197 5199 5203 5207 5210 5213 5216 5221 5225 5228 5231 5231 5232 5234 5235 5236 5241 5244 5246 5244 5246 5247 5247 5244 5242 5241 5237 5230 5223 5214 5203 5191 5180 5165 5155 5148 5138 5128 5118 5109 5101
5171 5174 5178 5181 5182 5185 5188 5192 5196 5200 5203 5207 5208 5209 5215 5218 5221 5223 5226 5228 5230 5231 5233 5235 5233 5231 5229 5228 5224 5217 5208 5199 5189 5178 5168 5155 5145 5138 5129 5120 5110 5102 5093
5157 5160 5163 5165 5167 5169 5172 5177 5183 5186 5189 5191 5193 5197 5200 5204 5208 5211 5213 5216 5218 5220 5222 5222 5220 5218 5216 5214 5211 5204 5195 5186 5175 5165 5157 5146 5135 5128 5120 5111 5102 5094 5087
5142 5145 5147 5149 5152 5155 5159 5165 5169 5172 5175 5179 5183 5186 5189 5192 5196 5199 5202 5205 5207 5210 5211 5210 5208 5206 5203 5200 5195 5188 5181 5171 5161 5152 5144 5133 5126 5117 5110 5103 5095 5088 5082
5131 5133 5135 5138 5141 5144 5148 5153 5158 5161 5164 5168 5170 5174 5177 5181 5185 5189 5192 5197 5199 5200 5199 5197 5195 5193 5190 5186 5181 5175 5167 5156 5147 5140 5132 5121 5113 5107 5101 5095 5088 5083 5078
5125 5127 5128 5130 5133 5136 5139 5143 5146 5150 5154 5156 5160 5164 5169 5174 5178 5182 5185 5188 5189 5188 5187 5186 5183 5180 5175 5171 5167 5161 5153 5144 5137 5129 5119 5110 5104 5098 5093 5088 5083 5078 5073
Wind_Speed
57 54 56 57 58 58 59 61 60 54 51 53 56 56 58 57 56 57 58 57 61 65 66 68 70 72 72 71 69 70 67 67 64 61 66 69 71 71 71 72 74 77 79
62 57 56 57 57 58 60 58 56 55 55 55 54 54 56 51 57 58 62 62 64 68 69 70 72 73 66 63 60 62 64 68 71 66 65 66 69 72 73 74 73 77 82
64 64 63 63 58 55 56 58 54 52 49 51 52 54 56 62 64 64 65 67 69 66 68 68 70 70 68 65 63 67 70 70 70 68 60 65 68 70 72 75 74 77 81
65 64 65 63 53 51 52 53 50 54 57 56 57 61 63 65 67 66 63 62 64 64 67 68 71 71 72 73 71 72 73 72 70 70 66 64 68 74 76 77 73 77 84
60 64 65 58 47 48 51 52 55 57 57 60 61 61 62 62 62 64 64 68 64 61 61 63 66 70 73 72 70 72 72 74 75 76 73 70 70 73 75 75 80 82 82
60 60 62 66 56 53 56 57 54 57 59 60 58 59 62 64 67 66 61 60 58 60 61 66 69 72 70 70 71 73 73 73 75 76 72 70 67 72 77 80 78 83 86
66 66 65 63 64 66 63 59 57 58 62 61 56 59 60 60 56 52 54 56 59 61 60 60 63 64 65 65 65 68 70 71 72 71 68 70 70 78 79 79 83 87 87
78 78 74 73 68 68 60 58 60 63 64 61 56 55 59 55 50 50 50 52 49 52 51 57 63 66 68 67 71 68 63 64 65 67 69 73 75 78 82 84 86 90 89
81 83 86 79 73 71 66 57 63 68 66 69 57 56 59 60 52 55 53 51 48 57 60 60 62 65 68 72 75 69 67 66 69 72 74 79 79 81 85 88 89 95 96
79 85 85 75 73 66 60 61 64 65 68 66 66 63 60 63 54 52 53 54 67 65 61 65 68 69 73 73 74 73 72 70 69 73 76 76 81 81 81 88 93 97 101
85 86 75 68 67 66 63 62 64 64 63 62 63 64 65 69 67 67 69 73 70 66 71 70 73 76 77 75 77 75 73 73 71 73 75 78 79 78 82 86 93 102 101
89 86 80 74 78 77 72 69 64 64 62 60 61 66 70 71 74 76 78 79 75 74 76 77 72 77 79 77 74 71 72 73 73 73 73 74 75 78 83 88 95 96 86
82 74 81 80 77 73 74 69 67 68 68 63 66 70 74 76 80 84 82 80 83 83 85 75 75 77 75 76 72 69 76 77 75 74 74 74 77 81 85 90 93 81 67
73 76 76 74 72 74 71 70 71 71 71 70 69 74 78 77 80 90 81 80 78 70 72 77 86 89 72 85 78 72 75 76 75 73 74 77 79 82 89 89 80 66 60
79 76 80 79 79 76 76 72 71 68 69 71 81 76 77 72 72 73 70 71 74 77 76 77 75 71 70 72 70 66 67 69 70 74 78 79 82 87 88 77 65 57 55
83 83 87 90 85 84 81 79 72 65 71 75 73 74 80 84 80 78 74 74 75 74 78 80 74 72 71 66 60 53 56 62 68 74 77 80 83 87 80 65 58 53 51
78 79 83 85 84 83 83 82 87 80 82 84 83 85 81 70 69 74 81 86 70 72 73 63 66 66 65 54 47 49 56 62 68 73 74 79 83 78 68 61 54 50 49
83 88 92 94 93 84 87 94 86 79 77 84 87 87 84 85 90 85 76 80 73 71 64 59 60 61 51 41 43 50 56 61 65 69 72 77 75 69 62 59 54 50 47
118 117 115 118 109 108 106 107 114 99 96 95 90 98 102 96 92 86 73 67 69 62 54 55 57 55 41 39 46 50 54 59 64 66 70 72 69 62 59 56 53 50 47
113 110 114 111 109 108 110 113 125 117 117 114 110 102 102 100 89 67 66 67 64 52 53 56 52 47 36 41 47 50 52 58 61 65 69 68 64 58 57 53 51 47 44
78 79 75 76 76 74 74 75 79 84 87 85 73 70 63 68 65 63 56 49 49 52 55 54 50 39 37 42 47 49 52 58 60 64 67 66 62 53 53 50 46 46 43
50 53 52 54 55 56 53 53 50 42 43 47 48 45 53 53 47 50 51 48 50 54 54 51 40 35 39 44 49 51 53 59 62 65 66 64 58 48 48 45 40 41 40
43 43 44 47 52 51 47 41 37 42 43 47 50 45 55 50 52 45 46 48 49 51 50 43 37 38 42 47 51 53 54 59 63 67 66 60 55 46 43 40 36 37 38
34 35 36 39 40 41 39 37 38 36 39 42 42 44 44 44 45 45 44 45 49 50 46 40 39 42 45 49 53 56 58 60 64 68 68 59 52 44 40 37 33 32 37
24 24 23 26 28 29 40 39 41 38 38 42 47 47 46 42 40 39 40 46 49 47 44 42 43 45 49 51 55 57 59 62 66 72 69 57 51 44 38 36 32 28 32
21 24 25 25 30 36 41 39 31 35 38 38 35 33 32 32 34 38 42 47 47 44 43 44 46 49 51 54 58 60 61 63 68 73 65 53 50 42 36 34 30 25 27
Wind_Direction
274 273 270 271 272 274 275 276 277 275 270 270 272 274 271 271 272 278 283 285 284 282 282 281 281 282 283 282 281 279 278 280 279 274 276 277 278 277 276 275 276 277 276
277 275 272 273 276 277 276 275 272 272 272 274 274 275 274 274 283 281 279 285 284 283 282 281 281 283 281 280 281 282 283 283 284 282 281 279 279 279 279 279 279 281 284
280 280 277 275 271 271 272 271 268 267 272 276 277 277 278 281 281 282 281 283 284 287 289 287 286 283 281 279 282 283 284 285 285 284 279 279 279 282 282 283 284 287 290
278 277 280 274 268 264 264 262 269 273 277 281 278 278 275 277 279 281 284 285 284 283 287 290 292 290 287 286 287 284 282 283 283 284 284 283 286 286 287 288 289 291 293
273 276 277 266 266 265 263 270 272 274 275 276 278 279 279 280 280 280 280 282 285 288 289 290 289 288 289 291 289 288 288 287 288 288 288 288 287 287 289 291 293 293 296
270 268 265 264 263 273 270 273 274 271 275 280 279 280 279 280 281 281 283 286 287 288 291 294 295 294 294 293 292 292 292 291 290 289 288 287 288 293 297 296 294 294 299
266 262 264 263 260 269 274 278 276 276 275 277 278 279 276 279 284 285 284 284 287 290 294 298 296 297 298 295 294 293 295 294 291 291 291 291 296 297 298 295 295 298 302
270 269 272 273 273 273 274 274 275 277 279 279 270 267 272 280 285 282 281 282 287 295 300 302 302 300 294 292 295 297 298 296 294 294 294 297 296 298 298 297 298 298 302
269 271 270 269 271 267 272 275 273 275 279 283 265 266 270 276 278 278 275 281 287 301 308 306 309 309 305 299 297 298 295 297 295 294 296 297 297 301 299 299 300 300 306
272 271 269 268 269 268 272 271 273 277 280 281 274 272 274 278 273 272 276 281 296 298 300 302 306 310 317 309 300 296 295 297 296 296 296 297 297 301 298 300 302 305 310
268 269 267 270 271 274 271 274 275 276 277 278 278 278 281 277 275 274 277 281 290 295 298 301 304 310 313 315 306 296 297 297 298 299 298 299 300 299 299 302 309 309 309
266 266 267 269 270 271 270 269 268 273 274 271 272 272 279 281 279 278 277 279 284 290 294 296 300 308 311 314 307 296 301 301 300 301 301 301 299 299 301 308 310 307 304
262 266 266 267 268 267 270 270 268 269 270 271 273 276 276 276 277 277 278 280 284 286 292 296 301 308 306 309 302 293 296 298 300 301 300 300 301 302 306 310 309 302 298
259 261 263 265 268 269 268 266 266 267 269 265 268 273 270 272 276 278 276 281 288 295 291 296 298 301 299 304 300 293 292 295 297 300 301 303 306 308 311 310 306 297 295
252 255 261 261 261 261 262 264 262 263 264 260 265 264 265 272 277 276 282 285 285 290 288 288 292 294 296 294 293 291 293 295 300 304 305 307 310 312 312 308 303 298 296
248 255 257 257 254 254 257 256 253 257 255 255 258 258 263 266 265 272 272 281 291 284 287 288 290 292 292 289 289 292 296 300 304 306 308 313 315 315 312 308 304 302 299
237 241 243 245 246 252 256 255 253 253 252 256 267 265 262 256 263 274 282 287 285 276 280 278 283 287 283 283 287 292 297 302 305 309 315 317 318 316 313 311 307 305 303
252 263 267 266 267 259 251 256 247 255 255 254 258 263 261 266 278 282 286 286 284 279 272 277 283 279 274 280 286 291 301 305 310 315 320 321 320 317 313 311 310 308 310
261 265 267 271 271 267 264 264 270 270 266 270 265 268 271 271 277 282 280 271 266 266 275 279 278 270 272 280 286 295 305 310 313 319 324 323 319 315 312 311 310 313 315
270 271 270 270 271 266 262 262 264 268 269 274 276 276 276 279 282 272 263 261 259 273 275 275 265 264 272 282 289 298 311 314 317 324 325 320 318 313 311 310 310 312 315
262 264 265 265 266 266 265 264 265 266 268 269 271 270 266 264 257 255 255 259 267 270 273 264 258 264 277 286 292 303 312 314 319 325 325 319 316 309 309 307 308 310 312
251 253 257 262 264 263 260 258 259 255 254 256 259 255 243 246 248 253 260 262 265 266 262 255 259 272 282 288 295 304 311 315 319 324 324 319 312 307 307 306 306 310 311
255 256 261 261 260 264 261 248 242 250 258 250 254 249 239 245 243 252 257 259 259 258 251 255 265 276 284 290 296 304 311 314 318 322 324 317 313 305 306 307 308 310 309
261 260 256 256 255 258 255 236 247 257 252 246 241 245 247 244 246 249 251 252 252 248 251 260 270 279 287 293 300 306 310 315 317 320 321 316 313 305 306 308 308 313 316
254 251 251 252 250 245 237 245 249 249 243 243 242 247 243 239 238 240 246 250 247 250 257 266 275 283 290 295 301 304 309 315 317 318 320 314 313 306 303 308 308 312 312
243 247 255 251 244 236 242 252 236 235 244 248 236 227 227 230 236 243 247 245 249 256 265 273 281 287 293 297 300 303 309 314 315 316 317 311 311 306 299 303 304 306 308